Regional Weather Roundup
Issued by NWS Newport/Morehead, NC

Current Version | Previous Version | Graphics & Text | Print | Product List | Glossary Off
Versions: 1 2 3 4 5 6 7 8 9 10 11 12 13 14 15 16 17 18 19 20 21 22 23 24 25 26 27 28 29 30 31 32 33 34 35 36 37 38 39 40 41 42 43 44 45 46 47 48 49 50

000
ASUS42 KMHX 200822
RWRMHX
WEATHER ROUNDUP FOR EASTERN NORTH CAROLINA
NATIONAL WEATHER SERVICE NEWPORT/MOREHEAD CITY NC
400 AM EDT MON OCT 20 2014

NOTE: "FAIR" INDICATES FEW OR NO CLOUDS BELOW 12,000 FEET
WITH NO SIGNIFICANT WEATHER AND/OR OBSTRUCTIONS TO VISIBILITY

NCZ015>017-031-032-045>047-102-103-200900-
NORTH COAST

CITY           SKY/WX    TMP DP  RH WIND       PRES   REMARKS
EDENTON        CLEAR     40  39  93 CALM      30.14S
ELIZABETH CITY CLEAR     41  39  93 SW3       30.14S
KITTY HAWK     SUNNY     55  45  68 CALM      30.12S
MANTEO         CLEAR     47  41  78 CALM      30.13S

$$

NCZ045>047-081-094-103-104-200900-
CENTRAL COAST

CITY           SKY/WX    TMP DP  RH WIND       PRES   REMARKS
FRISCO         CLEAR     49  43  80 CALM      30.13S
SWANQUARTER      N/A     45 N/A N/A E1        30.09F

$$

NCZ095-097-098-100-101-200900-
SOUTHERN COAST

CITY           SKY/WX    TMP DP  RH WIND       PRES   REMARKS
BEAUFORT       CLEAR     46  44  93 CALM      30.14F
CEDAR ISLAND     N/A     61 N/A N/A NE6       30.18S
JACKSONVILLE   CLEAR     43  41  93 CALM      30.14S
PINEY ISLAND   SUNNY     59  39  47 CALM      30.13F
WILMINGTON     CLEAR     45  43  93 CALM      30.14F


$$

NCZ011>013-027>030-043-044-078>080-089-090>093-098-200900-
COASTAL PLAIN

CITY           SKY/WX    TMP DP  RH WIND       PRES   REMARKS
AHOSKIE        CLEAR     37  36  96 CALM      30.14S
CLINTON        CLEAR     42  42 100 CALM      30.14S
ELIZABETHTOWN  CLEAR     45  42  90 SE3       30.14S
GOLDSBORO      CLEAR     42  41  98 CALM      30.12F
GREENVILLE       N/A     41  41 100 CALM      30.15S FOG
HAVELOCK       CLEAR     44  41  89 CALM      30.15F
KENANSVILLE    CLEAR     38  38 100 CALM      30.15S
KINSTON        CLEAR     38  38  97 CALM      30.15R
NEW BERN       MOCLDY    43  40  89 CALM      30.15S FOG
RICHLANDS      CLEAR     39  36  87 CALM      30.15R
ROCKY MOUNT    CLEAR     40  39  97 CALM      30.13S FOG
WASHINGTON     CLEAR     40  38  94 CALM      30.14S
WHITEVILLE     CLEAR     45  43  91 CALM      30.14S

$$

AMZ130-135-150-152-154-156-158-170-250-252-270-ANZ085-086-088-633-658-670-200900-
MARINE OBSERVATIONS

STATION/POSITION TIME  TEMP    WIND        PRES    WAVE   SWELL
                       AIR SEA DIR/SP/G            HT/PER HT/PER
                 (UTC) (F)     (DEG/KT/KT) (MB)    (FT/S) (FT/S)
CHESAPEAKE LIGHT 0800   59      20/  6/  7 1020.4
64 E VA BEACH    0800   60 69  360/  6/ 12 1019.4    4/13   3/13
DUCK             0800   58 68  300/  6/  8 1019.4
2 E DUCK         0800                        N/A     4/ 5   2/13
10 NE DUCK       0800      71                N/A     4/13   2/13
OREGON INLET     0800   56 68  320/  3/  4 1020.1
13E OREGON INLT  0800      74                N/A     5/13   2/13
HATTERAS CG      0800   60 66   40/  4/  7 1020.6
DIAMOND BUOY     0800   61     350/  6/ 10 1020.3    4/12   3/12
17 S OCRACOKE    0700          VRB  8/ 12  1020.3
CAPE LOOKOUT     0800   60     360/  7/  8 1020.4
BEAUFORT LAB     0800   55 69   10/  3/  3 1019.9
30 SE NEW RIVER  0800   64 76  110/  8/ 10 1020.1    2/10   2/10
5 SE WRIGHTSVLE  0800   61 73   70/  6/  8   N/A
225 S CAPE HAT   0750   70 80   50/  8/ 12 1019.3    5/ 8   5/ 8
41 SE CHARLESTON 0800   69 80  100/  6/ 10 1019.3    2/11   2/11

$$



USA.gov is the U.S. government's official web portal to all federal, state and local government web resources and services.